Location: Vienna
(48.2082°N, 16.3738°E)
Time: 16:37:11
(UTC+01:00)

ISS - Pass Details

Date: 14 January 2018
Orbit: 402 x 407 km, 51.6° (Epoch: 23 January)

Event Time Altitude Azimuth Distance (km) Brightness Sun altitude
Exits shadow 06:16:27 17° 241° (WSW) 1,108 -2.0 -13.6°
Maximum altitude 06:17:17 19° 221° (SW) 1,048 -2.0 -13.5°
Drops below altitude 10° 06:19:40 10° 174° (S) 1,460 -0.7 -13.1°
Sets 06:22:08 0° 156° (SSE) 2,317 0.7 -12.7°
